Weather History for Clarksville, TN

Change the Weather History Date:

Thursday, May 24, 2012

  Actual Average Record
Temperature  
Mean Temperature 73 °F -  
Max Temperature 90 °F - 93 °F (1953)
Min Temperature 56 °F - 42 °F (1983)
Degree Days  
Heating Degree Days 0    
Month to date heating degree days 12  
Since 1 July heating degree days 3114  
Cooling Degree Days 8    
Month to date cooling degree days 126  
Growing Degree Days 23 (Base 50)    
Moisture  
Dew Point 59 °F    
Average Humidity 67    
Maximum Humidity 93    
Minimum Humidity 40    
Precipitation  
Precipitation 0.00 in - 1.18 in (1973)
Month to date precipitation 1.42  
Sea Level Pressure  
Sea Level Pressure 29.83 in    
Wind  
Wind Speed 7 mph (SSE)    
Max Wind Speed 17 mph    
Max Gust Speed 24 mph    
Visibility 10 miles    
Events      
T = Trace of Precipitation, MM = Missing Value Source: NWS Daily Summary

Daily Weather History Graph

Daily Weather History Graph

Search for Another Location

Airport:

Trip Planner

Search our weather history database for the weather conditions in past years. The results will help you decide how hot, cold, wet, or windy it might be!

Date:

Astronomy

May. 24, 2012 Rise Set
Actual Time 5:35 AM CDT 7:57 PM CDT
Civil Twilight 5:06 AM CDT 8:27 PM CDT
Nautical Twilight 4:30 AM CDT 9:03 PM CDT
Astronomical Twilight 3:50 AM CDT 9:43 PM CDT
Moon 8:34 AM CDT (5/24) 10:59 PM CDT (5/24)
Length of Visible Light 15h 20m
Length of Day
14h 21m
Waxing Crescent, 12% of the Moon is Illuminated
May 24
Waxing Crescent
May 28
First Quarter
Jun 4
Full
Jun 11
Last Quarter
Jun 19
New

Hourly Weather History & Observations

Time (CDT) Temp. Heat Index Dew Point Humidity Pressure Visibility Wind Dir Wind Speed Gust Speed Precip Events Conditions
12:52 AM 61.0 °F - 55.9 °F 83% 29.83 in 10.0 mi Calm Calm - N/A   Clear
1:52 AM 57.9 °F - 55.9 °F 93% 29.82 in 10.0 mi Calm Calm - N/A   Clear
2:52 AM 59.0 °F - 55.9 °F 90% 29.82 in 8.0 mi ESE 4.6 mph - N/A   Clear
3:52 AM 57.9 °F - 55.9 °F 93% 29.83 in 7.0 mi SE 3.5 mph - N/A   Clear
4:52 AM 57.0 °F - 55.0 °F 93% 29.84 in 8.0 mi SE 3.5 mph - N/A   Clear
5:52 AM 57.0 °F - 54.0 °F 89% 29.85 in 8.0 mi SE 5.8 mph - N/A   Clear
6:52 AM 61.0 °F - 55.9 °F 83% 29.86 in 10.0 mi SE 4.6 mph - N/A   Clear
7:52 AM 66.9 °F - 57.0 °F 70% 29.88 in 10.0 mi SE 4.6 mph - N/A   Clear
8:52 AM 72.0 °F - 55.9 °F 57% 29.89 in 10.0 mi South 8.1 mph - N/A   Clear
11:52 AM 84.0 °F 84.0 °F 60.1 °F 44% 29.86 in 10.0 mi Variable 5.8 mph - N/A   Clear
12:52 PM 86.0 °F 86.3 °F 62.1 °F 44% 29.85 in 10.0 mi SSE 10.4 mph - N/A   Clear
1:52 PM 87.1 °F 87.5 °F 62.1 °F 43% 29.83 in 10.0 mi South 9.2 mph 17.3 mph N/A   Clear
2:52 PM 89.1 °F 89.3 °F 62.1 °F 40% 29.81 in 10.0 mi South 17.3 mph 23.0 mph N/A   Unknown
3:52 PM 87.1 °F 87.0 °F 61.0 °F 41% 29.79 in 10.0 mi South 13.8 mph 23.0 mph N/A   Scattered Clouds
4:52 PM 88.0 °F 87.9 °F 61.0 °F 40% 29.79 in 10.0 mi SSW 15.0 mph 19.6 mph N/A   Unknown
5:52 PM 87.1 °F 87.5 °F 62.1 °F 43% 29.78 in 10.0 mi South 16.1 mph 21.9 mph N/A   Clear
6:52 PM 84.9 °F 85.9 °F 63.0 °F 48% 29.80 in 10.0 mi South 10.4 mph - N/A   Clear
7:52 PM 82.0 °F 83.1 °F 63.0 °F 52% 29.78 in 10.0 mi SSE 8.1 mph - N/A   Clear
8:52 PM 80.1 °F 81.2 °F 62.1 °F 54% 29.80 in 10.0 mi South 5.8 mph - N/A   Clear
9:52 PM 78.1 °F - 63.0 °F 60% 29.82 in 10.0 mi South 5.8 mph - N/A   Clear
10:52 PM 75.9 °F - 63.0 °F 64% 29.85 in 10.0 mi SSE 3.5 mph - N/A   Clear
11:52 PM 73.9 °F - 63.0 °F 68% 29.88 in 10.0 mi South 3.5 mph - N/A   Clear